EW2837 Weather Reports


time (UTC)temp
C
wind
direction
speed
KPH
gust
KPH
rain 1hr
cm
rain 24hr
cm
rain mn
cm
humidity
%
barometer
mb
20260503223515 31 184 3.2 11.3 0.00 0.00 0.00 33 1007.1
20260503223037 31 299 6.4 11.3 0.00 0.00 0.00 30 1007.2
20260503222521 31 319 8.0 12.9 0.00 0.00 0.00 32 1007.4
20260503222020 31 227 6.4 16.1 0.00 0.00 0.00 30 1007.4
20260503221519 31 292 8.0 16.1 0.00 0.00 0.00 30 1007.5
20260503221018 31 199 8.0 14.5 0.00 0.00 0.00 35 1007.7
20260503220518 31 194 6.4 12.9 0.00 0.00 0.00 34 1007.7
20260503220040 31 208 6.4 11.3 0.00 0.00 0.00 35 1007.7
20260503215518 31 321 4.8 14.5 0.00 0.00 0.00 36 1007.8
20260503215019 31 242 6.4 17.7 0.00 0.00 0.00 37 1007.9
20260503214520 31 269 8.0 14.5 0.00 0.00 0.00 36 1007.9
20260503214023 31 232 8.0 12.9 0.00 0.00 0.00 39 1007.9
20260503213526 31 242 6.4 11.3 0.00 0.00 0.00 35 1008.1
20260503213024 31 317 4.8 11.3 0.00 0.00 0.00 37 1008.1
20260503212543 31 186 4.8 12.9 0.00 0.00 0.00 38 1008.1
20260503212042 31 265 4.8 12.9 0.00 0.00 0.00 37 1008.2
20260503211522 31 245 6.4 11.3 0.00 0.00 0.00 39 1008.2
20260503211043 30 272 6.4 14.5 0.00 0.00 0.00 41 1008.3
20260503210543 30 222 4.8 14.5 0.00 0.00 0.00 41 1008.4
20260503210020 30 232 6.4 12.9 0.00 0.00 0.00 39 1008.4
20260503205520 30 196 4.8 12.9 0.00 0.00 0.00 42 1008.5
20260503205027 30 287 6.4 12.9 0.00 0.00 0.00 42 1008.5
20260503204528 30 251 4.8 9.7 0.00 0.00 0.00 42 1008.6
20260503204050 30 244 6.4 14.5 0.00 0.00 0.00 43 1008.7
20260503203551 30 247 4.8 12.9 0.00 0.00 0.00 43 1008.7
20260503203027 29 205 6.4 12.9 0.00 0.00 0.00 47 1008.8
20260503202528 29 243 4.8 11.3 0.00 0.00 0.00 47 1008.9
20260503202029 29 298 3.2 12.9 0.00 0.00 0.00 47 1008.9
20260503201530 29 284 6.4 12.9 0.00 0.00 0.00 48 1009.0
20260503201030 28 277 4.8 12.9 0.00 0.00 0.00 50 1009.1
20260503200550 28 238 8.0 12.9 0.00 0.00 0.00 49 1009.1
20260503200029 28 188 6.4 11.3 0.00 0.00 0.00 50 1009.2
20260503195527 28 281 6.4 11.3 0.00 0.00 0.00 53 1009.3
20260503195029 28 217 3.2 12.9 0.00 0.00 0.00 53 1009.4
20260503194511 27 223 6.4 11.3 0.00 0.00 0.00 51 1009.5
20260503194029 27 282 6.4 11.3 0.00 0.00 0.00 54 1009.6
20260503193530 27 254 4.8 11.3 0.00 0.00 0.00 53 1009.7
20260503193030 27 268 6.4 11.3 0.00 0.00 0.00 56 1009.7
20260503192514 27 297 3.2 11.3 0.00 0.00 0.00 57 1009.8
20260503192032 27 316 6.4 9.7 0.00 0.00 0.00 57 1009.8
20260503191528 26 304 4.8 11.3 0.00 0.00 0.00 58 1009.8
20260503191047 26 260 6.4 11.3 0.00 0.00 0.00 57 1009.9
20260503190523 26 250 4.8 11.3 0.00 0.00 0.00 59 1010.0
20260503190023 26 190 4.8 11.3 0.00 0.00 0.00 59 1010.1
20260503185522 26 317 6.4 11.3 0.00 0.00 0.00 59 1010.1
20260503185021 26 327 3.2 9.7 0.00 0.00 0.00 58 1010.2
20260503184520 26 213 4.8 8.0 0.00 0.00 0.00 60 1010.3
20260503184022 25 275 3.2 6.4 0.00 0.00 0.00 60 1010.3
20260503183520 25 270 3.2 6.4 0.00 0.00 0.00 62 1010.4
20260503183022 25 271 3.2 9.7 0.00 0.00 0.00 61 1010.5
20260503182523 24 240 4.8 9.7 0.00 0.00 0.00 62 1010.5
20260503182043 24 316 3.2 8.0 0.00 0.00 0.00 60 1010.6
20260503181523 24 128 3.2 6.4 0.00 0.00 0.00 62 1010.7
20260503181024 23 263 3.2 9.7 0.00 0.00 0.00 61 1010.8
20260503180542 23 244 3.2 9.7 0.00 0.00 0.00 61 1010.8
20260503180019 23 292 1.6 9.7 0.00 0.00 0.00 62 1010.9
20260503175521 23 295 4.8 9.7 0.00 0.00 0.00 64 1010.9
20260503175018 23 277 4.8 8.0 0.00 0.00 0.00 63 1010.9
20260503174517 22 331 1.6 8.0 0.00 0.00 0.00 61 1011.0
20260503174018 22 228 3.2 9.7 0.00 0.00 0.00 62 1011.1
20260503173520 22 254 4.8 9.7 0.00 0.00 0.00 62 1011.0
20260503173038 22 322 3.2 6.4 0.00 0.00 0.00 61 1011.1
20260503172538 22 249 3.2 6.4 0.00 0.00 0.00 62 1011.2
20260503172017 22 202 3.2 6.4 0.00 0.00 0.00 64 1011.2
20260503171516 21 231 3.2 6.4 0.00 0.00 0.00 63 1011.2
20260503171015 21 300 3.2 8.0 0.00 0.00 0.00 63 1011.3
20260503170516 20 265 3.2 8.0 0.00 0.00 0.00 64 1011.3
20260503150512 14 71 0.0 3.2 0.00 0.00 0.00 93 1011.9
20260503131024 9 79 1.6 3.2 0.00 0.00 0.00 96 1011.6
20260503130523 9 89 1.6 3.2 0.00 0.00 0.00 96 1011.5
20260503110517 10 40 0.0 1.6 0.00 0.00 0.00 95 1012.0
20260503081527 13 58 0.0 3.2 0.00 0.00 0.00 91 1011.8
20260503081029 13 58 1.6 4.8 0.00 0.00 0.00 91 1011.9
20260503080550 13 62 1.6 4.8 0.00 0.00 0.00 91 1011.9
20260503072520 14 286 0.0 4.8 0.00 0.00 0.00 89 1011.8
20260503072021 14 274 1.6 4.8 0.00 0.00 0.00 89 1011.8
20260503071544 15 271 1.6 4.8 0.00 0.00 0.00 88 1011.7
20260503071023 15 243 1.6 4.8 0.00 0.00 0.00 88 1011.7
20260503070523 15 225 3.2 4.8 0.00 0.00 0.00 87 1011.7
20260503055028 16 304 0.0 1.6 0.00 0.00 0.00 83 1012.1
20260503054526 16 304 0.0 3.2 0.00 0.00 0.00 83 1012.1
20260503054013 16 304 1.6 3.2 0.00 0.00 0.00 83 1012.1
20260503053514 16 310 1.6 3.2 0.00 0.00 0.00 83 1012.1
20260503053014 16 25 1.6 1.6 0.00 0.00 0.00 82 1012.2
20260503052515 16 25 0.0 0.0 0.00 0.00 0.00 82 1012.2
20260503052017 16 25 0.0 0.0 0.00 0.00 0.00 82 1012.2
20260503051520 16 25 0.0 0.0 0.00 0.00 0.00 82 1012.1
20260503051019 16 25 0.0 1.6 0.00 0.00 0.00 81 1012.1
20260503050520 17 25 0.0 1.6 0.00 0.00 0.00 79 1012.1
20260503050021 17 25 0.0 1.6 0.00 0.00 0.00 79 1012.2
20260503045521 17 25 0.0 1.6 0.00 0.00 0.00 79 1012.1
20260503045020 17 25 0.0 3.2 0.00 0.00 0.00 79 1012.1
20260503044521 17 30 1.6 4.8 0.00 0.00 0.00 78 1012.0
20260503044021 17 42 1.6 4.8 0.00 0.00 0.00 78 1012.0
20260503043524 17 38 1.6 4.8 0.00 0.00 0.00 76 1012.1
20260503043029 17 47 1.6 4.8 0.00 0.00 0.00 76 1012.1
20260503042526 18 65 1.6 8.0 0.00 0.00 0.00 75 1012.0
20260503042026 18 63 3.2 8.0 0.00 0.00 0.00 74 1012.0
20260503041547 18 95 4.8 9.7 0.00 0.00 0.00 74 1012.0
20260503041048 18 98 3.2 9.7 0.00 0.00 0.00 74 1011.9
20260503040529 18 87 3.2 8.0 0.00 0.00 0.00 74 1011.9
20260503040031 18 107 4.8 8.0 0.00 0.00 0.00 73 1011.9
20260503035514 19 89 4.8 12.9 0.00 0.00 0.00 73 1011.8
20260503035030 19 124 6.4 16.1 0.00 0.00 0.00 72 1011.8
20260503034526 19 143 9.7 16.1 0.00 0.00 0.00 71 1011.7
20260503034028 20 119 8.0 12.9 0.00 0.00 0.00 70 1011.5
20260503033528 20 159 4.8 14.5 0.00 0.00 0.00 70 1011.4
20260503033030 20 114 4.8 14.5 0.00 0.00 0.00 68 1011.3
20260503032529 20 161 6.4 14.5 0.00 0.00 0.00 68 1011.3
20260503032029 21 119 8.0 17.7 0.00 0.00 0.00 66 1011.2
20260503031550 21 134 8.0 19.3 0.00 0.00 0.00 66 1011.2
20260503031028 21 141 11.3 17.7 0.00 0.00 0.00 65 1011.0
20260503030514 22 101 12.9 17.7 0.00 0.00 0.00 65 1010.9
20260503030016 22 121 9.7 16.1 0.00 0.00 0.00 64 1010.7
20260503025515 22 146 9.7 16.1 0.00 0.00 0.00 63 1010.6
20260503025033 22 102 4.8 11.3 0.00 0.00 0.00 63 1010.5
20260503024512 22 136 4.8 11.3 0.00 0.00 0.00 62 1010.5
20260503024014 22 144 4.8 8.0 0.00 0.00 0.00 63 1010.4
20260503023516 22 172 3.2 6.4 0.00 0.00 0.00 62 1010.1
20260503023017 22 143 3.2 6.4 0.00 0.00 0.00 62 1010.1
20260503022537 23 188 3.2 6.4 0.00 0.00 0.00 63 1010.0
20260503022036 23 175 1.6 6.4 0.00 0.00 0.00 62 1009.9
20260503021514 23 174 3.2 6.4 0.00 0.00 0.00 61 1009.9
20260503021016 23 222 3.2 6.4 0.00 0.00 0.00 60 1009.9
20260503020518 23 192 3.2 8.0 0.00 0.00 0.00 59 1009.9
20260503020016 23 157 3.2 8.0 0.00 0.00 0.00 58 1009.8
20260503015518 24 234 3.2 6.4 0.00 0.00 0.00 59 1009.8
20260503015018 24 236 1.6 6.4 0.00 0.00 0.00 58 1009.7
20260503014517 24 227 3.2 8.0 0.00 0.00 0.00 57 1009.7
20260503014038 24 309 3.2 8.0 0.00 0.00 0.00 58 1009.7
20260503013521 24 236 3.2 6.4 0.00 0.00 0.00 59 1009.8
20260503013023 24 225 1.6 6.4 0.00 0.00 0.00 57 1009.9
20260503012522 24 275 3.2 11.3 0.00 0.00 0.00 59 1019.0
20260503012014 24 217 3.2 11.3 0.00 0.00 0.00 60 1009.9
20260503011515 24 207 3.2 8.0 0.00 0.00 0.00 58 1009.9
20260503011017 24 247 1.6 6.4 0.00 0.00 0.00 60 1009.9
20260503010518 24 252 4.8 6.4 0.00 0.00 0.00 59 1009.9
20260503010018 24 203 3.2 6.4 0.00 0.00 0.00 59 1009.9
20260503005516 24 193 1.6 8.0 0.00 0.00 0.00 58 1009.9
20260503005016 25 252 3.2 8.0 0.00 0.00 0.00 58 1010.0
20260503004513 24 265 3.2 9.7 0.00 0.00 0.00 59 1010.0
20260503004030 24 228 1.6 9.7 0.00 0.00 0.00 59 1010.1
20260503003532 23 246 4.8 9.7 0.00 0.00 0.00 60 1010.0
20260503003029 23 269 4.8 9.7 0.00 0.00 0.00 59 1010.0
20260503002530 23 237 4.8 11.3 0.00 0.00 0.00 59 1010.1
20260503002031 23 313 4.8 11.3 0.00 0.00 0.00 61 1010.0
20260503001531 23 288 3.2 9.7 0.00 0.00 0.00 59 1010.1
20260503001033 23 190 4.8 11.3 0.00 0.00 0.00 61 1010.0
20260503000512 23 234 3.2 11.3 0.00 0.00 0.00 61 1010.1
20260503000018 23 299 4.8 9.7 0.00 0.00 0.00 59 1010.2
20260502235521 23 234 4.8 11.3 0.00 0.00 0.00 61 1010.3
20260502235023 23 215 6.4 11.3 0.00 0.00 0.00 63 1010.3
20260502234525 23 163 3.2 6.4 0.00 0.00 0.00 65 1010.4
20260502234027 23 226 3.2 11.3 0.00 0.00 0.00 62 1010.5
20260502233526 23 289 6.4 11.3 0.00 0.00 0.00 62 1010.5
20260502233024 23 224 4.8 11.3 0.00 0.00 0.00 63 1010.6
20260502232545 23 173 6.4 11.3 0.00 0.00 0.00 62 1010.7
20260502232045 22 246 4.8 9.7 0.00 0.00 0.00 61 1010.7
20260502231526 22 204 4.8 9.7 0.00 0.00 0.00 62 1010.8
20260502231027 22 163 4.8 9.7 0.00 0.00 0.00 63 1010.9
20260502230529 22 309 4.8 11.3 0.00 0.00 0.00 63 1010.9
20260502230027 22 315 3.2 11.3 0.00 0.00 0.00 62 1011.0
20260502225529 22 333 3.2 12.9 0.00 0.00 0.00 64 1011.2
20260502225028 22 254 6.4 12.9 0.00 0.00 0.00 66 1011.2
20260502224531 22 259 6.4 11.3 0.00 0.00 0.00 64 1011.3
20260502224029 22 300 3.2 11.3 0.00 0.00 0.00 65 1011.3